Showing default

GAOFEN 10R, 44622

Orbit data source: Space-Track

GAOFEN 10R, 44622 is a payload satellite owned by PLA SSF (CN) in SSO that was launched on Fri, 04 Oct 2019 UTC via a CHANG ZHENG 4C launch vehicle from the Taiyaun Space Center, China (TSC). Payload-class satellites include a variety of spacecraft equipped with specific instruments for various scientific and technological missions. These include communications satellites like Starlink; space stations such as the ISS; scientific satellites like the Hubble; Earth observation satellites from companies like Planet Labs, Umbra, and HawkEye 360; GPS; miniature CubeSats for education and research; and military/defense satellites.

Loading next visibility...
Identifier
44622, 2019-066A
Orbit
SSO
Country
Flag of CNCN / PRC
Related business
Manufacturer
SAST
Mission
Operational Defense Imaging
Bus & Motor
CS-L3000B?, Unknown motor
Mass
~3,000 kg wet, ~3,000 kg dry
Launch date (UTC)
2019-10-04 (6 years ago)
Launch vehicle
CHANG ZHENG 4C
Launch site
Taiyaun Space Center, China (TSC)
Object type
Payload
Rocket body
Debris
Shape & HBR
Box + 3 Pan, Unknown HBR
Radar Cross Section
10.846 m², Large (>1 m²)

Expand to show TLE details & history
Last TLE update: 14 hours ago

TLE from 14 hours ago
0 GAOFEN 10R
1 44622U 19066A   25249.28041007  .00002466  00000-0  31062-3 0  9997
2 44622  98.0096 196.5059 0005519   1.2530 358.8697 14.82918541320305
Epoch: 2025-09-06T06:43Z
TLE epoch observation values (Epoch: 2025-09-06T06:43:47.43Z)
Latitude
0.0001°
Longitude
109.94176°
Altitude
619.287 km
Speed
7.551 km/s
True Right ascension
13h 06m 01s
True Declination
0° 00' 00"
Sunlit
Object was in daylight at epoch
Visualization orbit readout
Latitude
Unknown
Longitude
Unknown
Altitude
Unknown
Speed
Unknown
Apparent Right ascension
Unknown
Apparent Declination
Unknown
Sunlit
N/A
Visualization observer readout
Local Sidereal Time
12:46:25
Azimuth
Unknown
Elevation
Unknown
Doppler factor
Unknown
Orbital elements
Apogee altitude
621.029 km
Perigee altitude
613.308 km
Semi-major axis
6,995.306 km
Eccentricity
0.00055
Inclination
98.0096°
RAAN
196.5059°
Arg. of periapsis
1.253°
True anomaly
358.86845°
Mean anomaly
358.8697°
Eccentric anomaly
358.86908°
Mean motion
3.70965 °/min
Orbital period
97.04 mins
BSTAR
0.00031062
Loading maneuver chart data...
Computing Atmospheric mass density...
Loading historical data...
Loading historical data...
Loading historical data...
Loading historical data...
Loading historical data...
Loading historical data...
Loading historical data...
Other satellites on launch #66 in the year 2019 (2019-10-04 UTC)

Documentation

Showing up to 5 results
|